Location: Lafig�re
(44.4503°N, 4.0357°E)
Time: 00:26:52
(UTC+00:00)

ARGOS - Pass Details

Date: 30 January 2021
Orbit: 821 x 834 km, 98.4° (Epoch: 03 March)

Event Time Altitude Azimuth Distance (km) Brightness Sun altitude
Rises 17:44:11 0° 134° (SE) 3,347 6.0 -9.9°
Reaches altitude 10° 17:46:46 10° 124° (ESE) 2,420 5.2 -10.3°
Maximum altitude 17:51:21 30° 65° (ENE) 1,452 3.9 -11.1°
Drops below altitude 10° 17:55:58 10° 6° (N) 2,441 5.4 -11.9°
Sets 17:58:34 0° 356° (N) 3,381 6.3 -12.4°
